Flag for China Weather past 2 weeks in Changchun, Jilin, China

Now
79 °F

Clear.


Feels Like: 82 °F
Forecast: 66 / 87 °F
Wind: 3 mph from South

Location: Changchun Airport

Current Time: Aug 2, 2014 at 8:27:01 AM

Latest Report: Aug 2, 2014 at 7:00 AM


Visibility: 4 mi

Pressure: 29.71 "Hg

Humidity: 79%

Dew point: 72 °F

Location of ChangchunLocation

Historic Weather in Changchun — Graph

°F

Changchun temperature yesterday

Maximum temperature yesterday: 86 °F (at 2:00 PM)
Minimum temperature yesterday: 70 °F (at 4:00 AM)
Average temperature yesterday: 78 °F

Past Weeks' High & Low Weather Summary

 TemperatureHumidityPressure
High90 °F (Jul 20, 2:00 PM)94% (Jul 18, 7:00 PM)29.92 "Hg (Jul 18, 7:00 PM)
Low57 °F (Jul 25, 1:00 AM)42% (Jul 25, 2:00 PM)29.47 "Hg (Jul 23, 1:00 PM)
Average74 °F72%29.74 "Hg
* Reported Jul 18 7:00 AM — Aug 2 7:00 AM, Changchun, Weather by CustomWeather, © 2014

Note: Actual official high and low records may vary slightly from our data, if they occured in-between our weather recording intervals... More about our weather records

Advertising

Changchun weather history for previous 24 hours

 ConditionsComfort  
Time TempWeatherWind HumidityBarometerVisibility
7:00 AM
Aug 2
79 °FClear.3 mph79%29.71 "Hg4 mi
6:00 AM75 °FFog.3 mph83%29.71 "Hg3 mi
5:00 AM72 °FFog.1 mph94%29.74 "Hg2 mi
4:00 AM73 °FFog.3 mph89%29.74 "Hg2 mi
3:00 AM73 °FFog.6 mph89%29.77 "Hg3 mi
2:00 AM73 °FFog.1 mph83%29.74 "Hg2 mi
1:00 AM75 °FFog.3 mph78%29.74 "Hg2 mi
12:00 AM75 °FFog.3 mph83%29.74 "Hg2 mi
11:00 PM
Aug 1
75 °FFog.3 mph83%29.74 "Hg2 mi
10:00 PM77 °FFog.3 mph79%29.74 "Hg2 mi
9:00 PM79 °FPassing clouds.3 mph79%29.74 "Hg4 mi
8:00 PM81 °FPassing clouds.1 mph74%29.77 "Hg4 mi
7:00 PM82 °FScattered clouds.3 mph66%29.74 "Hg4 mi
6:00 PM84 °FPassing clouds.6 mph62%29.71 "Hg4 mi
5:00 PM86 °FScattered clouds.8 mph59%29.71 "Hg4 mi
4:00 PM86 °FScattered clouds.13 mph55%29.74 "Hg4 mi
3:00 PM86 °FPartly sunny.10 mph59%29.74 "Hg5 mi
2:00 PM86 °FScattered clouds.10 mph59%29.74 "Hg5 mi
1:00 PM84 °FPartly sunny.10 mph62%29.77 "HgN/A
12:00 PM82 °FPartly sunny.13 mph62%29.77 "HgN/A
11:00 AM82 °FPartly sunny.10 mph66%29.77 "HgN/A
10:00 AM79 °FPartly sunny.10 mph70%29.77 "HgN/A
9:00 AM79 °FPartly sunny.15 mph70%29.77 "HgN/A
8:00 AM77 °FPassing clouds.10 mph74%29.77 "HgN/A
Weather by CustomWeather, © 2014

See weather overviewHow to use our weather pages